Location: Makanda
(37.6176°N, 89.2090°W)
Time: 09:14:30
(UTC+00:00)

Cosmos 1812 - Pass Details

Date: 23 September 2019
Orbit: 516 x 523 km, 82.5° (Epoch: 15 October)

Event Time Altitude Azimuth Distance (km) Brightness Sun altitude
Exits shadow 10:05:43 21° 330° (NNW) 1,229 4.4 -20.3°
Drops below altitude 10° 10:07:18 10° 346° (NNW) 1,761 5.4 -20.0°
Sets 10:09:37 0° 357° (N) 2,652 6.5 -19.5°
